Location: *
(46.4000°N, 12.6667°E)
Time: 04:03:56
(UTC+00:00)

X-37B - Pass Details

Date: 08 December 2021
Orbit: 331 x 339 km, 45.0° (Epoch: 27 January)

Event Time Altitude Azimuth Distance (km) Brightness Sun altitude
Rises 17:33:57 0° 242° (WSW) 2,094 5.6 -21.7°
Reaches altitude 10° 17:36:00 10° 235° (SW) 1,259 4.1 -22.1°
Enters shadow 17:37:26 24° 218° (SW) 743 2.5 -22.3°
